Time,TemperatureF,DewpointF,PressureIn,WindDirection,WindDirectionDegrees,WindSpeedMPH,WindSpeedGustMPH,Humidity,HourlyPrecipIn,Conditions,Clouds,dailyrainin,SoftwareType,DateUTC
2013-02-15 00:02:00,18.0,18.0,30.30,NW,320,5.0,-999.0,100,-99.99,,,-99.99,,2013-02-15 06:02:00,
2013-02-15 00:11:00,18.0,18.0,30.30,NW,320,5.0,-999.0,100,-99.99,,,-99.99,,2013-02-15 06:11:00,
2013-02-15 00:21:00,18.0,18.0,30.30,NW,320,5.0,-999.0,100,-99.99,,,-99.99,,2013-02-15 06:21:00,
2013-02-15 00:31:00,18.0,18.0,30.32,West,280,6.0,-999.0,100,-99.99,,,-99.99,,2013-02-15 06:31:00,
2013-02-15 00:42:00,18.0,18.0,30.32,West,280,6.0,-999.0,100,-99.99,,,-99.99,,2013-02-15 06:42:00,
2013-02-15 00:52:00,18.0,18.0,30.32,WNW,290,6.0,-999.0,100,-99.99,,,-99.99,,2013-02-15 06:52:00,
2013-02-15 01:01:00,18.0,18.0,30.32,WNW,290,6.0,-999.0,100,-99.99,,,-99.99,,2013-02-15 07:01:00,
2013-02-15 01:11:00,18.0,18.0,30.32,WNW,290,6.0,-999.0,100,-99.99,,,-99.99,,2013-02-15 07:11:00,
2013-02-15 01:21:00,19.0,19.0,30.32,NW,320,7.0,-999.0,100,-99.99,,,-99.99,,2013-02-15 07:21:00,
2013-02-15 01:31:00,18.0,18.0,30.32,NW,310,6.0,-999.0,100,-99.99,,,-99.99,,2013-02-15 07:31:00,
2013-02-15 01:42:00,18.0,18.0,30.32,NW,310,6.0,-999.0,100,-99.99,,,-99.99,,2013-02-15 07:42:00,
2013-02-15 01:52:00,18.0,18.0,30.33,WNW,300,6.0,-999.0,100,-99.99,,,-99.99,,2013-02-15 07:52:00,
2013-02-15 02:01:00,18.0,18.0,30.33,WNW,300,6.0,-999.0,100,-99.99,,,-99.99,,2013-02-15 08:01:00,
2013-02-15 02:11:00,18.0,18.0,30.33,WNW,300,6.0,-999.0,100,-99.99,,,-99.99,,2013-02-15 08:11:00,
2013-02-15 02:21:00,12.0,12.0,30.33,West,270,6.0,-999.0,100,-99.99,,,-99.99,,2013-02-15 08:21:00,
2013-02-15 02:31:00,14.0,14.0,30.34,WSW,240,7.0,-999.0,100,-99.99,,,-99.99,,2013-02-15 08:31:00,
2013-02-15 02:42:00,14.0,14.0,30.34,WSW,240,7.0,-999.0,100,-99.99,,,-99.99,,2013-02-15 08:42:00,
2013-02-15 02:53:00,14.0,14.0,30.34,WSW,250,8.0,-999.0,100,-99.99,,,-99.99,,2013-02-15 08:53:00,
2013-02-15 03:01:00,14.0,14.0,30.34,WSW,250,8.0,-999.0,100,-99.99,,,-99.99,,2013-02-15 09:01:00,
2013-02-15 03:12:00,14.0,14.0,30.34,WSW,250,8.0,-999.0,100,-99.99,,,-99.99,,2013-02-15 09:12:00,
2013-02-15 03:21:00,16.0,16.0,30.34,West,260,6.0,-999.0,100,-99.99,,,-99.99,,2013-02-15 09:21:00,
2013-02-15 03:32:00,16.0,16.0,30.34,West,270,3.0,-999.0,100,-99.99,,,-99.99,,2013-02-15 09:32:00,
2013-02-15 03:42:00,16.0,16.0,30.34,West,270,3.0,-999.0,100,-99.99,,,-99.99,,2013-02-15 09:42:00,
2013-02-15 03:52:00,16.0,16.0,30.33,West,260,3.0,-999.0,100,-99.99,,,-99.99,,2013-02-15 09:52:00,
2013-02-15 04:01:00,16.0,16.0,30.33,West,260,3.0,-999.0,100,-99.99,,,-99.99,,2013-02-15 10:01:00,
2013-02-15 04:11:00,16.0,16.0,30.33,West,260,3.0,-999.0,100,-99.99,,,-99.99,,2013-02-15 10:11:00,
2013-02-15 04:21:00,14.0,14.0,30.32,WSW,250,3.0,-999.0,100,-99.99,,,-99.99,,2013-02-15 10:21:00,
2013-02-15 04:31:00,12.0,12.0,30.32,SW,220,5.0,-999.0,100,-99.99,,,-99.99,,2013-02-15 10:31:00,
2013-02-15 04:42:00,12.0,12.0,30.32,SW,220,5.0,-999.0,100,-99.99,,,-99.99,,2013-02-15 10:42:00,
2013-02-15 04:52:00,12.0,12.0,30.32,SW,220,7.0,-999.0,100,-99.99,,,-99.99,,2013-02-15 10:52:00,
2013-02-15 05:01:00,12.0,12.0,30.32,SW,220,7.0,-999.0,100,-99.99,,,-99.99,,2013-02-15 11:01:00,
2013-02-15 05:11:00,12.0,12.0,30.32,SW,220,7.0,-999.0,100,-99.99,,,-99.99,,2013-02-15 11:11:00,
2013-02-15 05:22:00,12.0,12.0,30.33,SW,220,5.0,-999.0,100,-99.99,,,-99.99,,2013-02-15 11:22:00,
2013-02-15 05:31:00,14.0,14.0,30.34,SW,220,5.0,-999.0,100,-99.99,,,-99.99,,2013-02-15 11:31:00,
2013-02-15 05:42:00,14.0,14.0,30.34,SW,220,5.0,-999.0,100,-99.99,,,-99.99,,2013-02-15 11:42:00,
2013-02-15 05:52:00,14.0,14.0,30.34,SW,220,5.0,-999.0,100,-99.99,,,-99.99,,2013-02-15 11:52:00,
2013-02-15 06:01:00,14.0,14.0,30.34,SW,220,5.0,-999.0,100,-99.99,,,-99.99,,2013-02-15 12:01:00,
2013-02-15 06:11:00,14.0,14.0,30.34,SW,220,5.0,-999.0,100,-99.99,,,-99.99,,2013-02-15 12:11:00,
2013-02-15 06:21:00,12.0,12.0,30.34,SSW,210,5.0,-999.0,100,-99.99,,,-99.99,,2013-02-15 12:21:00,
2013-02-15 06:32:00,12.0,12.0,30.34,SW,230,5.0,-999.0,100,-99.99,,,-99.99,,2013-02-15 12:32:00,
2013-02-15 06:42:00,12.0,12.0,30.34,SW,230,5.0,-999.0,100,-99.99,,,-99.99,,2013-02-15 12:42:00,
2013-02-15 06:52:00,12.0,12.0,30.34,SW,220,6.0,-999.0,100,-99.99,,,-99.99,,2013-02-15 12:52:00,
2013-02-15 07:02:00,12.0,12.0,30.34,SW,220,6.0,-999.0,100,-99.99,,,-99.99,,2013-02-15 13:02:00,
2013-02-15 07:11:00,12.0,12.0,30.34,SW,220,6.0,-999.0,100,-99.99,,,-99.99,,2013-02-15 13:11:00,
2013-02-15 07:21:00,16.0,16.0,30.34,SW,220,7.0,-999.0,100,-99.99,,,-99.99,,2013-02-15 13:21:00,
2013-02-15 07:32:00,12.0,12.0,30.34,SW,230,8.0,-999.0,100,-99.99,,,-99.99,,2013-02-15 13:32:00,
2013-02-15 07:42:00,12.0,12.0,30.34,SW,230,8.0,-999.0,100,-99.99,,,-99.99,,2013-02-15 13:42:00,
2013-02-15 07:52:00,14.0,14.0,30.34,SW,230,8.0,-999.0,100,-99.99,,,-99.99,,2013-02-15 13:52:00,
2013-02-15 08:01:00,14.0,14.0,30.34,SW,230,8.0,-999.0,100,-99.99,,,-99.99,,2013-02-15 14:01:00,
2013-02-15 08:12:00,14.0,14.0,30.34,SW,230,8.0,-999.0,100,-99.99,,,-99.99,,2013-02-15 14:12:00,
2013-02-15 08:21:00,16.0,16.0,30.35,WSW,240,6.0,-999.0,100,-99.99,,,-99.99,,2013-02-15 14:21:00,
2013-02-15 08:32:00,18.0,18.0,30.34,WSW,250,7.0,-999.0,100,-99.99,,,-99.99,,2013-02-15 14:32:00,
2013-02-15 08:42:00,18.0,18.0,30.34,WSW,250,7.0,-999.0,100,-99.99,,,-99.99,,2013-02-15 14:42:00,
2013-02-15 08:52:00,19.0,19.0,30.34,West,260,7.0,-999.0,100,-99.99,,,-99.99,,2013-02-15 14:52:00,
2013-02-15 09:01:00,19.0,19.0,30.34,West,260,7.0,-999.0,100,-99.99,,,-99.99,,2013-02-15 15:01:00,
2013-02-15 09:11:00,19.0,19.0,30.34,West,260,7.0,-999.0,100,-99.99,,,-99.99,,2013-02-15 15:11:00,
2013-02-15 09:21:00,27.0,25.0,30.34,West,280,12.0,-999.0,92,-99.99,,,-99.99,,2013-02-15 15:21:00,
2013-02-15 09:32:00,27.0,27.0,30.35,WNW,290,7.0,-999.0,100,-99.99,,,-99.99,,2013-02-15 15:32:00,
2013-02-15 10:22:00,28.0,28.0,30.33,West,280,9.0,-999.0,100,-99.99,,,-99.99,,2013-02-15 16:22:00,
2013-02-15 10:32:00,30.0,28.0,30.33,WNW,300,8.0,-999.0,92,-99.99,,,-99.99,,2013-02-15 16:32:00,
2013-02-15 10:52:00,32.0,28.0,30.33,NW,310,10.0,-999.0,86,-99.99,,,-99.99,,2013-02-15 16:52:00,
2013-02-15 11:21:00,32.0,27.0,30.33,WNW,290,6.0,-999.0,80,-99.99,,,-99.99,,2013-02-15 17:21:00,
2013-02-15 11:32:00,36.0,27.0,30.33,WNW,290,7.0,-999.0,69,-99.99,,,-99.99,,2013-02-15 17:32:00,
2013-02-15 11:42:00,36.0,27.0,30.33,WNW,290,7.0,-999.0,69,-99.99,,,-99.99,,2013-02-15 17:42:00,
2013-02-15 11:52:00,34.0,27.0,30.33,WNW,300,9.0,-999.0,74,-99.99,,,-99.99,,2013-02-15 17:52:00,
2013-02-15 12:01:00,34.0,27.0,30.33,WNW,300,9.0,-999.0,74,-99.99,,,-99.99,,2013-02-15 18:01:00,
2013-02-15 12:11:00,34.0,27.0,30.33,WNW,300,9.0,-999.0,74,-99.99,,,-99.99,,2013-02-15 18:11:00,
2013-02-15 12:21:00,36.0,27.0,30.33,West,280,12.0,-999.0,69,-99.99,,,-99.99,,2013-02-15 18:21:00,
2013-02-15 12:31:00,37.0,25.0,30.33,NW,310,14.0,-999.0,60,-99.99,,,-99.99,,2013-02-15 18:31:00,
2013-02-15 12:42:00,37.0,25.0,30.33,NW,310,14.0,-999.0,60,-99.99,,,-99.99,,2013-02-15 18:42:00,
2013-02-15 13:01:00,37.0,25.0,30.32,West,280,15.0,21.0,60,-99.99,,,-99.99,,2013-02-15 19:01:00,
2013-02-15 13:11:00,37.0,25.0,30.32,West,280,15.0,21.0,60,-99.99,,,-99.99,,2013-02-15 19:11:00,
2013-02-15 13:22:00,37.0,23.0,30.30,WNW,290,20.0,24.0,55,-99.99,,,-99.99,,2013-02-15 19:22:00,
2013-02-15 13:32:00,39.0,21.0,30.29,WNW,300,16.0,28.0,48,-99.99,,,-99.99,,2013-02-15 19:32:00,
2013-02-15 13:42:00,39.0,21.0,30.29,WNW,300,16.0,28.0,48,-99.99,,,-99.99,,2013-02-15 19:42:00,
2013-02-15 13:52:00,39.0,21.0,30.29,WNW,290,9.0,20.0,48,-99.99,,,-99.99,,2013-02-15 19:52:00,
2013-02-15 14:01:00,39.0,21.0,30.29,WNW,290,9.0,20.0,48,-99.99,,,-99.99,,2013-02-15 20:01:00,
2013-02-15 14:11:00,39.0,21.0,30.29,WNW,290,9.0,20.0,48,-99.99,,,-99.99,,2013-02-15 20:11:00,
2013-02-15 14:21:00,39.0,21.0,30.27,NNW,330,13.0,23.0,48,-99.99,,,-99.99,,2013-02-15 20:21:00,
2013-02-15 14:32:00,39.0,21.0,30.27,NW,310,17.0,24.0,48,-99.99,,,-99.99,,2013-02-15 20:32:00,
2013-02-15 14:42:00,39.0,21.0,30.27,NW,310,17.0,24.0,48,-99.99,,,-99.99,,2013-02-15 20:42:00,
2013-02-15 14:52:00,39.0,21.0,30.27,NW,310,16.0,25.0,48,-99.99,,,-99.99,,2013-02-15 20:52:00,
2013-02-15 15:01:00,39.0,21.0,30.27,NW,310,16.0,25.0,48,-99.99,,,-99.99,,2013-02-15 21:01:00,
2013-02-15 15:11:00,39.0,21.0,30.27,NW,310,16.0,25.0,48,-99.99,,,-99.99,,2013-02-15 21:11:00,
2013-02-15 15:21:00,39.0,21.0,30.27,NNW,340,17.0,25.0,48,-99.99,,,-99.99,,2013-02-15 21:21:00,
2013-02-15 15:31:00,39.0,19.0,30.27,NW,320,14.0,25.0,44,-99.99,,,-99.99,,2013-02-15 21:31:00,
2013-02-15 15:42:00,39.0,19.0,30.27,NW,320,14.0,25.0,44,-99.99,,,-99.99,,2013-02-15 21:42:00,
2013-02-15 15:52:00,37.0,19.0,30.27,NW,310,15.0,-999.0,47,-99.99,,,-99.99,,2013-02-15 21:52:00,
2013-02-15 16:02:00,37.0,19.0,30.27,NW,310,15.0,-999.0,47,-99.99,,,-99.99,,2013-02-15 22:02:00,
2013-02-15 16:11:00,37.0,19.0,30.27,NW,310,15.0,-999.0,47,-99.99,,,-99.99,,2013-02-15 22:11:00,
2013-02-15 16:21:00,37.0,21.0,30.28,NW,320,20.0,25.0,51,-99.99,,,-99.99,,2013-02-15 22:21:00,
2013-02-15 16:31:00,36.0,19.0,30.28,NNW,330,16.0,22.0,51,-99.99,,,-99.99,,2013-02-15 22:31:00,
2013-02-15 16:42:00,36.0,19.0,30.28,NNW,330,16.0,22.0,51,-99.99,,,-99.99,,2013-02-15 22:42:00,
2013-02-15 16:52:00,36.0,19.0,30.28,NNW,330,16.0,22.0,51,-99.99,,,-99.99,,2013-02-15 22:52:00,
2013-02-15 17:02:00,36.0,19.0,30.28,NNW,330,16.0,22.0,51,-99.99,,,-99.99,,2013-02-15 23:02:00,
2013-02-15 17:11:00,36.0,19.0,30.28,NNW,330,16.0,22.0,51,-99.99,,,-99.99,,2013-02-15 23:11:00,
2013-02-15 17:21:00,36.0,21.0,30.29,NNW,330,18.0,24.0,55,-99.99,,,-99.99,,2013-02-15 23:21:00,
2013-02-15 17:32:00,36.0,21.0,30.29,NNW,330,16.0,20.0,55,-99.99,,,-99.99,,2013-02-15 23:32:00,
2013-02-15 17:42:00,36.0,21.0,30.29,NNW,330,16.0,20.0,55,-99.99,,,-99.99,,2013-02-15 23:42:00,
2013-02-15 17:52:00,36.0,21.0,30.30,NNW,330,25.0,31.0,55,-99.99,,,-99.99,,2013-02-15 23:52:00,
2013-02-15 18:02:00,36.0,21.0,30.30,NNW,330,25.0,31.0,55,-99.99,,,-99.99,,2013-02-16 00:02:00,
2013-02-15 18:11:00,36.0,21.0,30.30,NNW,330,25.0,31.0,55,-99.99,,,-99.99,,2013-02-16 00:11:00,
2013-02-15 18:21:00,34.0,18.0,30.30,NNW,340,10.0,-999.0,51,-99.99,,,-99.99,,2013-02-16 00:21:00,
2013-02-15 18:32:00,32.0,18.0,30.32,North,350,10.0,-999.0,54,-99.99,,,-99.99,,2013-02-16 00:32:00,
2013-02-15 18:42:00,32.0,18.0,30.32,North,350,10.0,-999.0,54,-99.99,,,-99.99,,2013-02-16 00:42:00,
2013-02-15 18:52:00,30.0,18.0,30.33,North,350,10.0,-999.0,59,-99.99,,,-99.99,,2013-02-16 00:52:00,
2013-02-15 19:02:00,30.0,18.0,30.33,North,350,10.0,-999.0,59,-99.99,,,-99.99,,2013-02-16 01:02:00,
2013-02-15 19:11:00,30.0,18.0,30.33,North,350,10.0,-999.0,59,-99.99,,,-99.99,,2013-02-16 01:11:00,
2013-02-15 19:21:00,27.0,18.0,30.33,NNW,340,7.0,-999.0,68,-99.99,,,-99.99,,2013-02-16 01:21:00,
2013-02-15 19:31:00,25.0,16.0,30.32,North,350,8.0,-999.0,68,-99.99,,,-99.99,,2013-02-16 01:31:00,
2013-02-15 19:42:00,25.0,16.0,30.32,North,350,8.0,-999.0,68,-99.99,,,-99.99,,2013-02-16 01:42:00,
2013-02-15 19:52:00,25.0,16.0,30.32,North,350,8.0,-999.0,68,-99.99,,,-99.99,,2013-02-16 01:52:00,
2013-02-15 20:01:00,25.0,16.0,30.32,North,350,8.0,-999.0,68,-99.99,,,-99.99,,2013-02-16 02:01:00,
2013-02-15 20:11:00,25.0,16.0,30.32,North,350,8.0,-999.0,68,-99.99,,,-99.99,,2013-02-16 02:11:00,
2013-02-15 20:21:00,19.0,14.0,30.34,NNW,340,8.0,-999.0,79,-99.99,,,-99.99,,2013-02-16 02:21:00,
2013-02-15 20:32:00,19.0,14.0,30.34,NW,320,8.0,-999.0,79,-99.99,,,-99.99,,2013-02-16 02:32:00,
2013-02-15 20:42:00,19.0,14.0,30.34,NW,320,8.0,-999.0,79,-99.99,,,-99.99,,2013-02-16 02:42:00,
2013-02-15 20:52:00,18.0,14.0,30.34,NNW,330,8.0,-999.0,85,-99.99,,,-99.99,,2013-02-16 02:52:00,
2013-02-15 21:01:00,18.0,14.0,30.34,NNW,330,8.0,-999.0,85,-99.99,,,-99.99,,2013-02-16 03:01:00,
2013-02-15 21:11:00,18.0,14.0,30.34,NNW,330,8.0,-999.0,85,-99.99,,,-99.99,,2013-02-16 03:11:00,
2013-02-15 21:21:00,18.0,14.0,30.33,NW,320,8.0,-999.0,85,-99.99,,,-99.99,,2013-02-16 03:21:00,
2013-02-15 21:31:00,19.0,16.0,30.32,NNW,330,6.0,-999.0,85,-99.99,,,-99.99,,2013-02-16 03:31:00,
2013-02-15 21:42:00,19.0,16.0,30.32,NNW,330,6.0,-999.0,85,-99.99,,,-99.99,,2013-02-16 03:42:00,
2013-02-15 21:52:00,18.0,14.0,30.32,NW,320,6.0,-999.0,85,-99.99,,,-99.99,,2013-02-16 03:52:00,
2013-02-15 22:01:00,18.0,14.0,30.32,NW,320,6.0,-999.0,85,-99.99,,,-99.99,,2013-02-16 04:01:00,
2013-02-15 22:11:00,18.0,14.0,30.32,NW,320,6.0,-999.0,85,-99.99,,,-99.99,,2013-02-16 04:11:00,
2013-02-15 22:21:00,16.0,12.0,30.34,West,270,7.0,-999.0,85,-99.99,,,-99.99,,2013-02-16 04:21:00,
2013-02-15 22:32:00,14.0,12.0,30.33,SW,220,8.0,-999.0,92,-99.99,,,-99.99,,2013-02-16 04:32:00,
2013-02-15 22:42:00,14.0,12.0,30.33,SW,220,8.0,-999.0,92,-99.99,,,-99.99,,2013-02-16 04:42:00,
2013-02-15 22:52:00,16.0,14.0,30.33,WSW,250,7.0,-999.0,92,-99.99,,,-99.99,,2013-02-16 04:52:00,
2013-02-15 23:01:00,16.0,14.0,30.33,WSW,250,7.0,-999.0,92,-99.99,,,-99.99,,2013-02-16 05:01:00,
2013-02-15 23:12:00,16.0,14.0,30.33,WSW,250,7.0,-999.0,92,-99.99,,,-99.99,,2013-02-16 05:12:00,
2013-02-15 23:21:00,16.0,12.0,30.32,WSW,250,7.0,-999.0,85,-99.99,,,-99.99,,2013-02-16 05:21:00,
2013-02-15 23:32:00,14.0,12.0,30.32,WSW,250,6.0,-999.0,92,-99.99,,,-99.99,,2013-02-16 05:32:00,
2013-02-15 23:42:00,14.0,12.0,30.32,WSW,250,6.0,-999.0,92,-99.99,,,-99.99,,2013-02-16 05:42:00,
2013-02-15 23:52:00,14.0,12.0,30.32,WSW,250,6.0,-999.0,92,-99.99,,,-99.99,,2013-02-16 05:52:00,